THEMIS A

Last updated on Sat Mar 14 2026 00:02:46 GMT+0000 (Coordinated Universal Time)

1 30580U 07004A 26072.05246650 -.00000177 00000+0 -31237-1 0 9995 2 30580 6.8904 119.1463 8401233 179.4070 183.9802 0.87846480 40436
UTC large
Height (km)
Speed (km/s)
/
Latitude / Longitude
Inclination (degrees)
Orbital Period (minutes)
Azimuth
Elevation
Range (km)
Doppler Factor

Next 0 passes for location: London (51.5072 / 0.1276)

Sorry there are no passes over London.